User: anonymous   Login
Location: Oshawa
(43.9000°N, 78.8670°W)
Time: 23:29:22
(UTC-05:00)
Language:

PAYLOAD A - Orbit

View from above orbital plane
View from above orbital plane
View from above satellite
View from above satellite

Ground track
Ground track

The orbit data is extracted from the following two-line orbital elements,

1 27840U 03031A   16339.17782814 -.00000014  00000-0  93041-5 0  9996
2 27840  98.1987 339.1748 0098006 347.6687  12.2104 14.38870265705279
Epoch (UTC): 04 December 2016 04:16:04
Eccentricity: 0.0098006
inclination: 98.1987°
perigee height: 692 km
apogee height: 832 km
right ascension of ascending node: 339.1748°
argument of perigee: 347.6687°
revolutions per day: 14.38870265
mean anomaly at epoch: 12.2104°
orbit number at epoch: 70527

The dashed part of the orbit path shows where the satellite is in the earth's shadow,  

DLR